| time (UTC) | temp F | wind direction | speed MPH | gust MPH | rain 1hr in | rain 24hr in | rain mn in | humidity % | barometer mb |
| 20260507183347 | 74 | 350 | 3.0 | 10.0 | 0.00 | 0.02 | 0.00 | 75 | 1015.3 |
| 20260507182845 | 73 | 329 | 4.0 | 10.0 | 0.00 | 0.02 | 0.00 | 76 | 1015.4 |
| 20260507182319 | 73 | 10 | 4.0 | 10.0 | 0.00 | 0.02 | 0.00 | 75 | 1015.5 |
| 20260507181816 | 73 | 46 | 3.0 | 10.0 | 0.00 | 0.02 | 0.00 | 75 | 1015.5 |
| 20260507181313 | 74 | 5 | 3.0 | 7.0 | 0.00 | 0.02 | 0.00 | 76 | 1015.4 |
| 20260507180745 | 73 | 28 | 3.0 | 7.0 | 0.00 | 0.02 | 0.00 | 76 | 1015.5 |
| 20260507180452 | 72 | 47 | 3.0 | 9.0 | 0.00 | 0.02 | 0.00 | 78 | 1015.5 |
| 20260507175715 | 71 | 5 | 4.0 | 9.0 | 0.00 | 0.02 | 0.00 | 78 | 1015.6 |
| 20260507175149 | 71 | 32 | 4.0 | 9.0 | 0.00 | 0.02 | 0.00 | 79 | 1015.7 |
| 20260507174621 | 70 | 5 | 4.0 | 9.0 | 0.00 | 0.02 | 0.00 | 79 | 1015.9 |
| 20260507174117 | 70 | 54 | 4.0 | 9.0 | 0.00 | 0.02 | 0.00 | 80 | 1015.9 |
| 20260507173617 | 70 | 49 | 4.0 | 10.0 | 0.00 | 0.02 | 0.00 | 79 | 1016.0 |
| 20260507173050 | 70 | 0 | 3.0 | 10.0 | 0.00 | 0.02 | 0.00 | 79 | 1016.2 |
| 20260507172546 | 70 | 29 | 3.0 | 7.0 | 0.00 | 0.02 | 0.00 | 80 | 1016.2 |
| 20260507172022 | 70 | 10 | 3.0 | 7.0 | 0.00 | 0.02 | 0.00 | 79 | 1016.2 |
| 20260507171516 | 70 | 309 | 3.0 | 7.0 | 0.00 | 0.02 | 0.00 | 79 | 1016.1 |
| 20260507171012 | 69 | 355 | 3.0 | 7.0 | 0.00 | 0.02 | 0.00 | 79 | 1016.1 |
| 20260507170510 | 69 | 323 | 3.0 | 7.0 | 0.00 | 0.02 | 0.00 | 80 | 1016.1 |
| 20260507170256 | 69 | 323 | 3.0 | 7.0 | 0.00 | 0.02 | 0.00 | 80 | 1016.2 |
| 20260507170153 | 69 | 0 | 3.0 | 6.0 | 0.00 | 0.02 | 0.00 | 80 | 1016.2 |
| 20260507164935 | 69 | 308 | 3.0 | 7.0 | 0.00 | 0.02 | 0.00 | 80 | 1016.3 |
| 20260507164432 | 69 | 5 | 3.0 | 7.0 | 0.00 | 0.02 | 0.00 | 79 | 1016.3 |
| 20260507163929 | 69 | 28 | 3.0 | 7.0 | 0.00 | 0.02 | 0.00 | 79 | 1016.2 |
| 20260507163402 | 70 | 19 | 2.0 | 7.0 | 0.00 | 0.02 | 0.00 | 78 | 1016.1 |
| 20260507162857 | 70 | 37 | 2.0 | 5.0 | 0.00 | 0.02 | 0.00 | 80 | 1016.0 |
| 20260507162337 | 69 | 67 | 3.0 | 6.0 | 0.00 | 0.02 | 0.00 | 81 | 1015.7 |
| 20260507161802 | 69 | 24 | 3.0 | 9.0 | 0.00 | 0.02 | 0.00 | 80 | 1015.6 |
| 20260507161237 | 69 | 39 | 3.0 | 8.0 | 0.00 | 0.02 | 0.00 | 81 | 1015.5 |
| 20260507160710 | 68 | 47 | 3.0 | 8.0 | 0.00 | 0.02 | 0.00 | 81 | 1015.4 |
| 20260507160630 | 68 | 68 | 3.0 | 8.0 | 0.00 | 0.02 | 0.00 | 83 | 1015.4 |
| 20260507155640 | 67 | 55 | 3.0 | 10.0 | 0.00 | 0.02 | 0.00 | 83 | 1015.5 |
| 20260507155135 | 67 | 27 | 4.0 | 8.0 | 0.00 | 0.02 | 0.00 | 83 | 1015.6 |
| 20260507154607 | 66 | 61 | 4.0 | 10.0 | 0.00 | 0.02 | 0.00 | 83 | 1015.7 |
| 20260507154105 | 66 | 0 | 3.0 | 9.0 | 0.00 | 0.02 | 0.00 | 84 | 1015.8 |
| 20260507153539 | 65 | 98 | 3.0 | 10.0 | 0.00 | 0.02 | 0.00 | 85 | 1016.0 |
| 20260507153035 | 65 | 42 | 3.0 | 10.0 | 0.00 | 0.02 | 0.00 | 85 | 1016.0 |
| 20260507152506 | 65 | 38 | 3.0 | 8.0 | 0.00 | 0.02 | 0.00 | 85 | 1016.2 |
| 20260507152003 | 65 | 102 | 4.0 | 8.0 | 0.00 | 0.02 | 0.00 | 85 | 1016.1 |
| 20260507151723 | 64 | 61 | 3.0 | 7.0 | 0.00 | 0.02 | 0.00 | 86 | 1016.0 |
| 20260507150935 | 64 | 35 | 3.0 | 7.0 | 0.00 | 0.02 | 0.00 | 86 | 1016.0 |
| 20260507150414 | 64 | 344 | 3.0 | 8.0 | 0.00 | 0.02 | 0.00 | 86 | 1016.1 |
| 20260507145900 | 64 | 0 | 3.0 | 8.0 | 0.00 | 0.02 | 0.00 | 86 | 1016.1 |
| 20260507145356 | 64 | 0 | 4.0 | 9.0 | 0.00 | 0.02 | 0.00 | 86 | 1015.9 |
| 20260507144828 | 64 | 0 | 3.0 | 9.0 | 0.00 | 0.02 | 0.00 | 86 | 1015.9 |
| 20260507144326 | 64 | 0 | 3.0 | 12.0 | 0.00 | 0.02 | 0.00 | 87 | 1015.6 |
| 20260507144031 | 64 | 53 | 5.0 | 14.0 | 0.00 | 0.02 | 0.00 | 86 | 1015.7 |
| 20260507143308 | 64 | 0 | 5.0 | 14.0 | 0.00 | 0.02 | 0.00 | 86 | 1015.7 |
| 20260507142741 | 64 | 0 | 5.0 | 14.0 | 0.00 | 0.02 | 0.00 | 86 | 1015.5 |
| 20260507142239 | 64 | 44 | 4.0 | 10.0 | 0.00 | 0.02 | 0.00 | 87 | 1015.4 |
| 20260507141735 | 64 | 19 | 4.0 | 12.0 | 0.00 | 0.02 | 0.00 | 87 | 1015.3 |
| 20260507141457 | 64 | 30 | 4.0 | 12.0 | 0.00 | 0.02 | 0.00 | 87 | 1015.2 |
| 20260507140736 | 64 | 13 | 3.0 | 9.0 | 0.00 | 0.02 | 0.00 | 87 | 1015.4 |
| 20260507140233 | 64 | 44 | 3.0 | 7.0 | 0.00 | 0.02 | 0.00 | 87 | 1015.6 |
| 20260507135734 | 64 | 355 | 2.0 | 7.0 | 0.00 | 0.02 | 0.00 | 87 | 1015.7 |
| 20260507135236 | 64 | 53 | 2.0 | 8.0 | 0.00 | 0.02 | 0.00 | 87 | 1015.8 |
| 20260507134939 | 64 | 34 | 3.0 | 8.0 | 0.00 | 0.02 | 0.00 | 87 | 1015.6 |
| 20260507134206 | 64 | 19 | 3.0 | 7.0 | 0.00 | 0.02 | 0.00 | 87 | 1015.8 |
| 20260507133919 | 64 | 17 | 3.0 | 9.0 | 0.00 | 0.02 | 0.00 | 87 | 1015.9 |
| 20260507133200 | 64 | 102 | 3.0 | 9.0 | 0.00 | 0.02 | 0.00 | 88 | 1015.9 |
| 20260507132635 | 64 | 0 | 3.0 | 8.0 | 0.00 | 0.02 | 0.00 | 88 | 1016.1 |
| 20260507132109 | 64 | 9 | 3.0 | 8.0 | 0.00 | 0.02 | 0.00 | 89 | 1016.1 |
| 20260507131543 | 64 | 301 | 3.0 | 8.0 | 0.00 | 0.02 | 0.00 | 89 | 1015.8 |
| 20260507131015 | 64 | 0 | 3.0 | 9.0 | 0.00 | 0.02 | 0.00 | 89 | 1015.7 |
| 20260507130512 | 64 | 0 | 4.0 | 9.0 | 0.00 | 0.02 | 0.00 | 89 | 1015.9 |
| 20260507125946 | 64 | 0 | 4.0 | 9.0 | 0.00 | 0.02 | 0.00 | 89 | 1016.0 |
| 20260507125443 | 64 | 0 | 3.0 | 8.0 | 0.00 | 0.02 | 0.00 | 89 | 1015.8 |
| 20260507124915 | 64 | 0 | 3.0 | 9.0 | 0.00 | 0.02 | 0.00 | 89 | 1015.8 |
| 20260507124412 | 64 | 0 | 3.0 | 12.0 | 0.00 | 0.02 | 0.00 | 89 | 1015.8 |
| 20260507123847 | 64 | 0 | 3.0 | 12.0 | 0.00 | 0.02 | 0.00 | 89 | 1015.6 |
| 20260507123540 | 64 | 0 | 3.0 | 8.0 | 0.00 | 0.02 | 0.00 | 89 | 1015.6 |
| 20260507122816 | 64 | 0 | 3.0 | 8.0 | 0.00 | 0.02 | 0.00 | 89 | 1015.4 |
| 20260507122314 | 64 | 28 | 2.0 | 8.0 | 0.00 | 0.02 | 0.00 | 89 | 1015.2 |
| 20260507121749 | 64 | 348 | 2.0 | 9.0 | 0.00 | 0.02 | 0.00 | 89 | 1015.1 |
| 20260507121245 | 64 | 10 | 3.0 | 9.0 | 0.00 | 0.02 | 0.00 | 88 | 1015.1 |
| 20260507120743 | 64 | 22 | 3.0 | 8.0 | 0.00 | 0.02 | 0.00 | 88 | 1014.7 |
| 20260507120438 | 65 | 63 | 3.0 | 7.0 | 0.00 | 0.02 | 0.00 | 89 | 1014.5 |
| 20260507115649 | 65 | 0 | 4.0 | 11.0 | 0.00 | 0.02 | 0.00 | 89 | 1014.6 |
| 20260507115145 | 65 | 16 | 4.0 | 11.0 | 0.00 | 0.02 | 0.00 | 88 | 1014.3 |
| 20260507114619 | 65 | 0 | 3.0 | 7.0 | 0.00 | 0.02 | 0.00 | 88 | 1014.5 |
| 20260507114055 | 65 | 0 | 2.0 | 6.0 | 0.00 | 0.02 | 0.00 | 88 | 1014.5 |
| 20260507113743 | 65 | 0 | 3.0 | 7.0 | 0.00 | 0.02 | 0.00 | 89 | 1014.3 |
| 20260507113027 | 65 | 0 | 2.0 | 7.0 | 0.00 | 0.02 | 0.00 | 88 | 1014.2 |
| 20260507112725 | 65 | 43 | 1.0 | 7.0 | 0.00 | 0.02 | 0.00 | 88 | 1014.0 |
| 20260507112445 | 65 | 82 | 3.0 | 7.0 | 0.00 | 0.02 | 0.00 | 88 | 1013.9 |
| 20260507111429 | 65 | 24 | 3.0 | 9.0 | 0.00 | 0.02 | 0.00 | 88 | 1013.9 |
| 20260507111146 | 66 | 0 | 2.0 | 9.0 | 0.00 | 0.02 | 0.00 | 88 | 1014.1 |
| 20260507110629 | 66 | 0 | 1.0 | 5.0 | 0.00 | 0.02 | 0.00 | 88 | 1014.1 |
| 20260507105858 | 66 | 0 | 2.0 | 5.0 | 0.00 | 0.02 | 0.00 | 88 | 1013.8 |
| 20260507105330 | 66 | 0 | 2.0 | 8.0 | 0.00 | 0.02 | 0.00 | 88 | 1013.5 |
| 20260507104828 | 66 | 15 | 2.0 | 8.0 | 0.00 | 0.02 | 0.00 | 88 | 1013.7 |
| 20260507104302 | 66 | 10 | 1.0 | 5.0 | 0.00 | 0.02 | 0.00 | 88 | 1013.5 |
| 20260507103737 | 66 | 36 | 2.0 | 5.0 | 0.00 | 0.02 | 0.00 | 88 | 1013.6 |
| 20260507103209 | 66 | 86 | 2.0 | 5.0 | 0.00 | 0.02 | 0.00 | 88 | 1013.5 |
| 20260507102931 | 66 | 59 | 2.0 | 6.0 | 0.00 | 0.02 | 0.00 | 88 | 1013.6 |
| 20260507102428 | 66 | 90 | 2.0 | 6.0 | 0.00 | 0.02 | 0.00 | 88 | 1013.4 |
| 20260507101923 | 66 | 0 | 2.0 | 5.0 | 0.00 | 0.02 | 0.00 | 88 | 1013.2 |
| 20260507101133 | 66 | 46 | 2.0 | 6.0 | 0.00 | 0.02 | 0.00 | 88 | 1013.4 |
| 20260507100631 | 66 | 0 | 2.0 | 6.0 | 0.00 | 0.02 | 0.00 | 88 | 1013.2 |
| 20260507100127 | 66 | 0 | 1.0 | 4.0 | 0.00 | 0.02 | 0.00 | 88 | 1013.2 |
| 20260507095625 | 66 | 0 | 2.0 | 7.0 | 0.00 | 0.02 | 0.00 | 88 | 1013.2 |
| 20260507095059 | 66 | 0 | 1.0 | 7.0 | 0.00 | 0.02 | 0.00 | 88 | 1013.1 |
| 20260507094532 | 66 | 57 | 2.0 | 6.0 | 0.00 | 0.02 | 0.00 | 88 | 1013.3 |
| 20260507094032 | 66 | 49 | 3.0 | 8.0 | 0.00 | 0.02 | 0.00 | 88 | 1013.0 |
| 20260507093533 | 66 | 94 | 3.0 | 9.0 | 0.00 | 0.02 | 0.00 | 88 | 1012.7 |
| 20260507093031 | 66 | 24 | 2.0 | 9.0 | 0.00 | 0.02 | 0.00 | 88 | 1012.9 |
| 20260507092510 | 66 | 0 | 2.0 | 7.0 | 0.00 | 0.02 | 0.00 | 88 | 1012.7 |
| 20260507092011 | 66 | 62 | 2.0 | 6.0 | 0.00 | 0.02 | 0.00 | 88 | 1012.9 |
| 20260507091510 | 66 | 0 | 2.0 | 6.0 | 0.00 | 0.02 | 0.00 | 88 | 1012.8 |
| 20260507091012 | 66 | 0 | 2.0 | 5.0 | 0.00 | 0.02 | 0.00 | 88 | 1012.9 |
| 20260507090445 | 66 | 30 | 2.0 | 5.0 | 0.00 | 0.02 | 0.00 | 88 | 1012.8 |
| 20260507085943 | 67 | 44 | 2.0 | 9.0 | 0.00 | 0.02 | 0.00 | 88 | 1013.0 |
| 20260507085415 | 67 | 0 | 2.0 | 9.0 | 0.00 | 0.02 | 0.00 | 88 | 1012.9 |
| 20260507084913 | 67 | 0 | 2.0 | 6.0 | 0.00 | 0.02 | 0.00 | 88 | 1012.8 |
| 20260507084603 | 67 | 0 | 2.0 | 9.0 | 0.00 | 0.02 | 0.00 | 88 | 1012.8 |
| 20260507083821 | 67 | 36 | 2.0 | 9.0 | 0.00 | 0.02 | 0.00 | 88 | 1013.2 |
| 20260507083255 | 67 | 0 | 2.0 | 7.0 | 0.00 | 0.02 | 0.00 | 88 | 1012.8 |
| 20260507082727 | 67 | 355 | 3.0 | 8.0 | 0.00 | 0.02 | 0.00 | 87 | 1012.8 |
| 20260507082201 | 67 | 38 | 2.0 | 8.0 | 0.00 | 0.02 | 0.00 | 87 | 1012.9 |
| 20260507081633 | 67 | 0 | 2.0 | 6.0 | 0.00 | 0.02 | 0.00 | 87 | 1012.9 |
| 20260507081129 | 67 | 49 | 2.0 | 6.0 | 0.00 | 0.02 | 0.00 | 87 | 1013.0 |
| 20260507080629 | 67 | 49 | 2.0 | 6.0 | 0.00 | 0.02 | 0.00 | 87 | 1013.0 |
| 20260507075557 | 67 | 35 | 2.0 | 6.0 | 0.00 | 0.02 | 0.00 | 87 | 1013.0 |
| 20260507075032 | 67 | 0 | 3.0 | 6.0 | 0.00 | 0.02 | 0.00 | 87 | 1012.8 |
| 20260507074505 | 67 | 0 | 2.0 | 7.0 | 0.00 | 0.02 | 0.00 | 87 | 1012.8 |
| 20260507074002 | 67 | 0 | 3.0 | 7.0 | 0.00 | 0.02 | 0.00 | 87 | 1013.1 |
| 20260507073437 | 67 | 0 | 3.0 | 8.0 | 0.00 | 0.02 | 0.00 | 87 | 1013.1 |
| 20260507072933 | 67 | 0 | 3.0 | 8.0 | 0.00 | 0.02 | 0.00 | 86 | 1013.1 |
| 20260507072646 | 67 | 0 | 2.0 | 6.0 | 0.00 | 0.02 | 0.00 | 87 | 1013.1 |
| 20260507071919 | 67 | 0 | 2.0 | 7.0 | 0.00 | 0.02 | 0.00 | 87 | 1013.1 |
| 20260507071415 | 67 | 0 | 2.0 | 7.0 | 0.00 | 0.02 | 0.00 | 87 | 1013.1 |
| 20260507070908 | 67 | 0 | 2.0 | 7.0 | 0.00 | 0.02 | 0.00 | 87 | 1013.1 |
| 20260507070603 | 67 | 0 | 2.0 | 7.0 | 0.00 | 0.02 | 0.00 | 87 | 1013.4 |
| 20260507065837 | 67 | 0 | 2.0 | 7.0 | 0.00 | 0.02 | 0.00 | 86 | 1013.4 |
| 20260507065310 | 67 | 0 | 3.0 | 8.0 | 0.00 | 0.02 | 0.00 | 86 | 1013.4 |
| 20260507064813 | 67 | 0 | 4.0 | 8.0 | 0.00 | 0.02 | 0.00 | 86 | 1013.2 |
| 20260507064242 | 67 | 0 | 4.0 | 9.0 | 0.00 | 0.02 | 0.00 | 86 | 1013.3 |
| 20260507063714 | 67 | 0 | 3.0 | 9.0 | 0.00 | 0.02 | 0.00 | 86 | 1013.5 |
| 20260507063209 | 67 | 0 | 2.0 | 7.0 | 0.00 | 0.02 | 0.00 | 86 | 1013.5 |
| 20260507062645 | 67 | 0 | 2.0 | 7.0 | 0.00 | 0.02 | 0.00 | 85 | 1013.1 |
| 20260507062117 | 68 | 0 | 3.0 | 8.0 | 0.00 | 0.02 | 0.00 | 85 | 1013.4 |
| 20260507061838 | 68 | 0 | 3.0 | 8.0 | 0.00 | 0.02 | 0.00 | 85 | 1013.4 |
| 20260507061047 | 68 | 0 | 2.0 | 7.0 | 0.00 | 0.02 | 0.00 | 85 | 1013.3 |
| 20260507060818 | 68 | 0 | 3.0 | 7.0 | 0.00 | 0.02 | 0.00 | 85 | 1013.0 |
| 20260507060244 | 68 | 0 | 3.0 | 7.0 | 0.00 | 0.02 | 0.00 | 85 | 1012.9 |
| 20260507055713 | 68 | 0 | 3.0 | 7.0 | 0.00 | 0.02 | 0.00 | 85 | 1013.1 |
| 20260507054924 | 68 | 0 | 2.0 | 7.0 | 0.00 | 0.02 | 0.00 | 85 | 1012.9 |
| 20260507054358 | 68 | 0 | 3.0 | 8.0 | 0.00 | 0.02 | 0.00 | 84 | 1012.9 |
| 20260507053832 | 68 | 0 | 3.0 | 8.0 | 0.00 | 0.02 | 0.00 | 84 | 1013.0 |
| 20260507053330 | 69 | 0 | 3.0 | 8.0 | 0.00 | 0.02 | 0.00 | 85 | 1012.9 |
| 20260507052803 | 69 | 0 | 3.0 | 7.0 | 0.00 | 0.02 | 0.00 | 85 | 1012.8 |
| 20260507051735 | 69 | 0 | 3.0 | 10.0 | 0.00 | 0.02 | 0.00 | 85 | 1012.9 |
| 20260507051207 | 69 | 0 | 4.0 | 10.0 | 0.00 | 0.02 | 0.00 | 84 | 1012.8 |
| 20260507050703 | 69 | 0 | 4.0 | 9.0 | 0.00 | 0.02 | 0.00 | 84 | 1012.8 |
| 20260507050155 | 69 | 0 | 4.0 | 8.0 | 0.00 | 0.02 | 0.00 | 84 | 1012.9 |
| 20260507050117 | 69 | 0 | 3.0 | 8.0 | 0.00 | 0.02 | 0.02 | 84 | 1013.0 |
| 20260507045128 | 69 | 0 | 3.0 | 7.0 | 0.00 | 0.02 | 0.02 | 84 | 1013.0 |
| 20260507044603 | 69 | 0 | 3.0 | 7.0 | 0.00 | 0.02 | 0.02 | 84 | 1012.9 |
| 20260507044252 | 69 | 0 | 4.0 | 8.0 | 0.00 | 0.02 | 0.02 | 84 | 1012.9 |
| 20260507043508 | 70 | 0 | 4.0 | 8.0 | 0.00 | 0.02 | 0.02 | 84 | 1012.9 |
| 20260507043005 | 70 | 0 | 3.0 | 8.0 | 0.00 | 0.02 | 0.02 | 84 | 1012.8 |
| 20260507042502 | 70 | 32 | 3.0 | 8.0 | 0.00 | 0.02 | 0.02 | 84 | 1012.8 |
| 20260507041959 | 70 | 350 | 3.0 | 7.0 | 0.00 | 0.02 | 0.02 | 84 | 1012.8 |
| 20260507041456 | 70 | 28 | 3.0 | 7.0 | 0.00 | 0.02 | 0.02 | 84 | 1012.8 |
| 20260507040954 | 70 | 14 | 3.0 | 7.0 | 0.00 | 0.02 | 0.02 | 84 | 1012.7 |
| 20260507040426 | 70 | 5 | 3.0 | 9.0 | 0.00 | 0.02 | 0.02 | 84 | 1012.7 |
| 20260507035924 | 71 | 329 | 3.0 | 9.0 | 0.00 | 0.02 | 0.02 | 84 | 1012.7 |
| 20260507035358 | 71 | 321 | 3.0 | 8.0 | 0.00 | 0.02 | 0.02 | 84 | 1012.6 |
| 20260507034831 | 71 | 13 | 3.0 | 5.0 | 0.00 | 0.02 | 0.02 | 84 | 1012.7 |
| 20260507034333 | 71 | 355 | 3.0 | 8.0 | 0.00 | 0.02 | 0.02 | 84 | 1012.7 |
| 20260507033800 | 71 | 326 | 3.0 | 8.0 | 0.00 | 0.02 | 0.02 | 84 | 1012.6 |
| 20260507033257 | 71 | 15 | 3.0 | 8.0 | 0.00 | 0.02 | 0.02 | 84 | 1012.4 |
| 20260507032755 | 71 | 5 | 3.0 | 8.0 | 0.00 | 0.02 | 0.02 | 84 | 1012.4 |
| 20260507032249 | 71 | 355 | 2.0 | 7.0 | 0.00 | 0.02 | 0.02 | 84 | 1012.3 |
| 20260507031723 | 72 | 355 | 2.0 | 7.0 | 0.00 | 0.02 | 0.02 | 84 | 1012.2 |
| 20260507031218 | 72 | 298 | 3.0 | 7.0 | 0.00 | 0.02 | 0.02 | 84 | 1012.1 |
| 20260507030700 | 72 | 35 | 3.0 | 6.0 | 0.00 | 0.02 | 0.02 | 84 | 1011.9 |
| 20260507030159 | 72 | 339 | 2.0 | 6.0 | 0.00 | 0.02 | 0.02 | 84 | 1011.9 |
| 20260507025921 | 72 | 5 | 3.0 | 8.0 | 0.00 | 0.02 | 0.02 | 84 | 1011.7 |
| 20260507025158 | 72 | 29 | 4.0 | 8.0 | 0.00 | 0.02 | 0.02 | 83 | 1011.7 |
| 20260507024656 | 72 | 17 | 3.0 | 8.0 | 0.00 | 0.02 | 0.02 | 83 | 1011.5 |
| 20260507024128 | 72 | 0 | 3.0 | 8.0 | 0.00 | 0.02 | 0.02 | 84 | 1011.5 |
| 20260507023626 | 72 | 5 | 3.0 | 9.0 | 0.00 | 0.02 | 0.02 | 84 | 1011.5 |
| 20260507023058 | 73 | 355 | 3.0 | 9.0 | 0.00 | 0.02 | 0.02 | 84 | 1011.2 |
| 20260507022555 | 73 | 38 | 3.0 | 9.0 | 0.00 | 0.02 | 0.02 | 84 | 1011.2 |
| 20260507022030 | 73 | 36 | 3.0 | 7.0 | 0.00 | 0.02 | 0.02 | 84 | 1011.0 |
| 20260507021527 | 73 | 23 | 3.0 | 9.0 | 0.00 | 0.02 | 0.02 | 84 | 1010.9 |
| 20260507021506 | 73 | 313 | 3.0 | 9.0 | 0.00 | 0.02 | 0.02 | 84 | 1010.8 |
| 20260507020459 | 73 | 14 | 3.0 | 9.0 | 0.00 | 0.02 | 0.02 | 84 | 1010.6 |
| 20260507015958 | 74 | 5 | 3.0 | 9.0 | 0.00 | 0.02 | 0.02 | 84 | 1010.7 |
| 20260507015710 | 74 | 270 | 3.0 | 7.0 | 0.00 | 0.02 | 0.02 | 84 | 1010.5 |
| 20260507014943 | 74 | 41 | 3.0 | 8.0 | 0.00 | 0.02 | 0.02 | 84 | 1010.3 |
| 20260507014417 | 74 | 5 | 3.0 | 8.0 | 0.00 | 0.02 | 0.02 | 84 | 1010.2 |
| 20260507013906 | 74 | 5 | 3.0 | 6.0 | 0.00 | 0.02 | 0.02 | 85 | 1010.2 |
| 20260507013404 | 74 | 342 | 3.0 | 7.0 | 0.00 | 0.02 | 0.02 | 84 | 1010.2 |
| 20260507012851 | 74 | 288 | 3.0 | 7.0 | 0.00 | 0.02 | 0.02 | 85 | 1010.0 |
| 20260507012614 | 75 | 355 | 3.0 | 7.0 | 0.00 | 0.02 | 0.02 | 85 | 1009.8 |
| 20260507012044 | 75 | 42 | 3.0 | 7.0 | 0.00 | 0.02 | 0.02 | 85 | 1009.8 |
| 20260507011324 | 75 | 17 | 2.0 | 6.0 | 0.00 | 0.02 | 0.02 | 85 | 1009.8 |
| 20260507011023 | 75 | 17 | 2.0 | 6.0 | 0.00 | 0.02 | 0.02 | 85 | 1009.8 |
| 20260507010256 | 75 | 330 | 2.0 | 6.0 | 0.00 | 0.02 | 0.02 | 85 | 1009.6 |
| 20260507005753 | 76 | 5 | 2.0 | 8.0 | 0.00 | 0.02 | 0.02 | 85 | 1009.4 |
| 20260507005252 | 76 | 325 | 3.0 | 8.0 | 0.00 | 0.02 | 0.02 | 84 | 1009.3 |
| 20260507004724 | 76 | 305 | 3.0 | 8.0 | 0.00 | 0.02 | 0.02 | 84 | 1009.3 |
| 20260507004221 | 76 | 340 | 3.0 | 8.0 | 0.00 | 0.02 | 0.02 | 84 | 1009.2 |
| 20260507003716 | 76 | 0 | 4.0 | 9.0 | 0.00 | 0.02 | 0.02 | 84 | 1009.1 |
| 20260507003213 | 77 | 5 | 3.0 | 9.0 | 0.00 | 0.02 | 0.02 | 84 | 1008.9 |
| 20260507002711 | 77 | 355 | 4.0 | 12.0 | 0.00 | 0.02 | 0.02 | 83 | 1008.9 |
| 20260507002428 | 77 | 0 | 4.0 | 12.0 | 0.00 | 0.02 | 0.02 | 83 | 1008.8 |
| 20260507001642 | 78 | 287 | 4.0 | 10.0 | 0.00 | 0.02 | 0.02 | 83 | 1008.8 |
| 20260507001129 | 79 | 23 | 4.0 | 9.0 | 0.00 | 0.02 | 0.02 | 83 | 1008.8 |
| 20260507000632 | 80 | 58 | 5.0 | 11.0 | 0.00 | 0.02 | 0.02 | 81 | 1008.7 |
| 20260507000106 | 82 | 321 | 3.0 | 11.0 | 0.00 | 0.02 | 0.02 | 79 | 1008.4 |
| 20260506235531 | 84 | 309 | 1.0 | 4.0 | 0.00 | 0.02 | 0.02 | 84 | 1008.2 |
| 20260506235227 | 84 | 302 | 1.0 | 4.0 | 0.00 | 0.02 | 0.02 | 83 | 1008.3 |
| 20260506234440 | 85 | 350 | 1.0 | 3.0 | 0.00 | 0.02 | 0.02 | 83 | 1008.4 |
| 20260506233938 | 85 | 16 | 0.0 | 3.0 | 0.00 | 0.02 | 0.02 | 83 | 1008.2 |
| 20260506233412 | 85 | 300 | 0.0 | 2.0 | 0.00 | 0.02 | 0.02 | 83 | 1008.1 |
| 20260506232848 | 85 | 300 | 0.0 | 3.0 | 0.00 | 0.02 | 0.02 | 83 | 1008.0 |
| 20260506232345 | 84 | 291 | 1.0 | 3.0 | 0.00 | 0.02 | 0.02 | 83 | 1008.0 |
| 20260506232106 | 84 | 289 | 1.0 | 3.0 | 0.00 | 0.02 | 0.02 | 83 | 1008.0 |
| 20260506231344 | 84 | 288 | 1.0 | 3.0 | 0.00 | 0.02 | 0.02 | 83 | 1008.0 |
| 20260506230819 | 84 | 285 | 1.0 | 3.0 | 0.00 | 0.02 | 0.02 | 84 | 1008.0 |
| 20260506230253 | 84 | 289 | 1.0 | 3.0 | 0.00 | 0.02 | 0.02 | 84 | 1008.0 |
| 20260506225749 | 84 | 317 | 0.0 | 3.0 | 0.00 | 0.02 | 0.02 | 84 | 1008.1 |
| 20260506225225 | 84 | 317 | 1.0 | 3.0 | 0.00 | 0.02 | 0.02 | 84 | 1008.1 |
| 20260506224702 | 84 | 303 | 1.0 | 3.0 | 0.00 | 0.02 | 0.02 | 84 | 1008.2 |
| 20260506224158 | 85 | 292 | 0.0 | 2.0 | 0.00 | 0.02 | 0.02 | 84 | 1007.9 |
| 20260506223631 | 85 | 290 | 0.0 | 2.0 | 0.00 | 0.02 | 0.02 | 84 | 1007.9 |
| 20260506223103 | 85 | 290 | 0.0 | 2.0 | 0.00 | 0.02 | 0.02 | 85 | 1008.0 |
| 20260506222759 | 85 | 289 | 0.0 | 0.0 | 0.00 | 0.02 | 0.02 | 86 | 1007.8 |
| 20260506222036 | 84 | 288 | 0.0 | 2.0 | 0.00 | 0.02 | 0.02 | 86 | 1007.9 |
| 20260506221512 | 84 | 287 | 0.0 | 3.0 | 0.00 | 0.02 | 0.02 | 86 | 1007.8 |
| 20260506220944 | 84 | 286 | 0.0 | 3.0 | 0.00 | 0.02 | 0.02 | 86 | 1007.8 |
| 20260506220442 | 84 | 282 | 0.0 | 2.0 | 0.00 | 0.02 | 0.02 | 86 | 1007.8 |
| 20260506215939 | 84 | 278 | 0.0 | 2.0 | 0.00 | 0.02 | 0.02 | 87 | 1007.8 |
| 20260506215439 | 84 | 278 | 0.0 | 2.0 | 0.00 | 0.02 | 0.02 | 86 | 1007.8 |
| 20260506214913 | 83 | 275 | 0.0 | 2.0 | 0.00 | 0.02 | 0.02 | 86 | 1007.9 |
| 20260506214609 | 84 | 273 | 0.0 | 2.0 | 0.01 | 0.02 | 0.02 | 88 | 1007.9 |
| 20260506213847 | 84 | 315 | 0.0 | 2.0 | 0.02 | 0.02 | 0.02 | 86 | 1007.9 |
| 20260506213345 | 84 | 315 | 0.0 | 4.0 | 0.02 | 0.02 | 0.02 | 85 | 1007.9 |
| 20260506212845 | 84 | 315 | 1.0 | 4.0 | 0.02 | 0.02 | 0.02 | 84 | 1007.9 |
| 20260506212329 | 84 | 305 | 2.0 | 5.0 | 0.02 | 0.02 | 0.02 | 84 | 1007.9 |
| 20260506211827 | 84 | 328 | 1.0 | 5.0 | 0.02 | 0.02 | 0.02 | 85 | 1007.8 |
| 20260506211324 | 84 | 355 | 1.0 | 4.0 | 0.02 | 0.02 | 0.02 | 87 | 1007.8 |
| 20260506210826 | 84 | 344 | 1.0 | 4.0 | 0.02 | 0.02 | 0.02 | 87 | 1007.9 |
| 20260506210300 | 84 | 336 | 1.0 | 4.0 | 0.02 | 0.02 | 0.02 | 87 | 1008.0 |
| 20260506205800 | 84 | 339 | 1.0 | 4.0 | 0.02 | 0.02 | 0.02 | 87 | 1008.0 |
| 20260506205232 | 84 | 298 | 1.0 | 3.0 | 0.02 | 0.02 | 0.02 | 85 | 1008.0 |
| 20260506204706 | 84 | 296 | 1.0 | 3.0 | 0.02 | 0.02 | 0.02 | 84 | 1008.2 |
| 20260506204143 | 85 | 294 | 1.0 | 3.0 | 0.01 | 0.01 | 0.01 | 82 | 1008.3 |
| 20260506203641 | 85 | 294 | 1.0 | 3.0 | 0.00 | 0.00 | 0.00 | 81 | 1008.2 |
| 20260506203138 | 85 | 281 | 1.0 | 3.0 | 0.00 | 0.00 | 0.00 | 81 | 1008.3 |
| 20260506202638 | 85 | 263 | 1.0 | 3.0 | 0.00 | 0.00 | 0.00 | 80 | 1008.3 |
| 20260506202113 | 85 | 164 | 1.0 | 3.0 | 0.00 | 0.00 | 0.00 | 81 | 1008.4 |
| 20260506201551 | 85 | 192 | 1.0 | 3.0 | 0.00 | 0.00 | 0.00 | 81 | 1008.4 |
| 20260506201052 | 85 | 202 | 1.0 | 4.0 | 0.00 | 0.00 | 0.00 | 82 | 1008.5 |
| 20260506200524 | 85 | 202 | 1.0 | 4.0 | 0.00 | 0.00 | 0.00 | 81 | 1008.5 |
| 20260506200023 | 86 | 163 | 1.0 | 3.0 | 0.00 | 0.00 | 0.00 | 80 | 1008.6 |
| 20260506195521 | 86 | 163 | 1.0 | 3.0 | 0.00 | 0.00 | 0.00 | 78 | 1008.5 |
| 20260506195023 | 87 | 169 | 1.0 | 3.0 | 0.00 | 0.00 | 0.00 | 78 | 1008.6 |
| 20260506194456 | 87 | 246 | 1.0 | 3.0 | 0.00 | 0.00 | 0.00 | 77 | 1008.6 |
| 20260506194215 | 87 | 209 | 1.0 | 4.0 | 0.00 | 0.00 | 0.00 | 77 | 1008.6 |
| 20260506193428 | 87 | 188 | 1.0 | 4.0 | 0.00 | 0.00 | 0.00 | 79 | 1008.6 |
| 20260506192903 | 86 | 148 | 1.0 | 4.0 | 0.00 | 0.00 | 0.00 | 81 | 1008.7 |
| 20260506192401 | 86 | 173 | 1.0 | 4.0 | 0.00 | 0.00 | 0.00 | 81 | 1008.7 |
| 20260506191838 | 85 | 113 | 1.0 | 3.0 | 0.00 | 0.00 | 0.00 | 83 | 1008.8 |
| 20260506191314 | 85 | 119 | 1.0 | 3.0 | 0.00 | 0.00 | 0.00 | 82 | 1008.9 |
| 20260506190812 | 85 | 117 | 1.0 | 3.0 | 0.00 | 0.00 | 0.00 | 80 | 1009.0 |
| 20260506190309 | 85 | 174 | 1.0 | 3.0 | 0.00 | 0.00 | 0.00 | 80 | 1009.1 |
| 20260506185810 | 85 | 173 | 1.0 | 3.0 | 0.00 | 0.00 | 0.00 | 80 | 1009.1 |
| 20260506185529 | 85 | 173 | 1.0 | 3.0 | 0.00 | 0.00 | 0.00 | 81 | 1009.1 |
| 20260506184741 | 85 | 200 | 1.0 | 3.0 | 0.00 | 0.00 | 0.00 | 80 | 1009.1 |
| 20260506184238 | 85 | 200 | 1.0 | 3.0 | 0.00 | 0.00 | 0.00 | 81 | 1009.2 |